Погода в Ишиме

Россия / Кемеровская область (Кузбасс)     56°30′54″N   86°13′20″E
темп.,
°C
ветер,
м/с
пор.,
м/с
влажн.,
%
обл.,
%
осадки,
мм/ч
давл.,
гПа
погр.,
м
3 марта, ср
ср301:00−19вюв119982 0.1 101820
04:00−21юв1110086 0.0 101720
07:00−19вюв119787 0.1 101820
10:00−17вюв119678 0.0 101879
13:00−12ю129085 0.0 1018322
16:00−10ююв2390100 0.0 1019402
19:00−11ююв2396100 0.1 102053
22:00−12ююз389594 0.1 1020212
4 марта, чт
чт401:00−13ююз399490 0.1 1021279
04:00−14ююз4139390 0.0 1020432
07:00−12ююз6158995 0.0 1021603
10:00−11ююз71587100 0.0 1019710
13:00−8ююз71490100 0.2 1018796
16:00−6ююз71390100 0.2 1017867
19:00−5ююз61293100 0.4 1016842
22:00−5ююз61391100 0.3 1015872
5 марта, пт
пт501:00−5ююз61492100 0.4 1014780
04:00−6ююз61389100 0.2 1013648
07:00−6ююз61489100 0.3 1012690
10:00−5ююз61483100 0.0 1010712
13:00−4ююз81488100 0.0 1010914
16:00−3юз81391100 0.5 10091071
19:00−3юз6148299 0.7 10121068
22:00−6юз61486100 0.0 1013842
6 марта, сб
сб601:00−6юз71489100 0.6 10141247
04:00−8юз4129398 0.2 1016788
07:00−7юз5129299 0.3 1017755
10:00−5ююз61289100 0.1 1016868
13:00−4ююз61293100 0.6 1014958
16:00−4юз71494100 0.9 10111116
19:00−4ююз71682100 1.3 10101147
22:00−5юз81692100 0.3 10091123
7 марта, вс
вс701:00−5юз71689100 0.8 10081083
04:00−4юз81684100 0.1 10071027
07:00−3юз71491100 0.3 10101220
10:00−4зюз71387100 0.3 10121322
13:00−3юз61181100 0.3 10141127
16:00−3юз51080100 0.0 1014991
19:00−5ююз3989100 0.0 1013316
22:00−3ююз51196100 0.6 1012817